BCO319 VOMM-VOHS

Flight info

Callsign BCO319
Flight time 0h 58m
Altitude 30000
Route KAMGU2B KAMGU W20 LEDOB LEDOB6
Aircraft A3ST/H-SDFGHIRWY/LB1

Departure

Time 2026-04-27 09:06
Airport Chennai International Airport (VOMM)

Arrival

Time 2026-04-27 10:05
Airport Rajiv Gandhi International Airport (VOHS)
Time Latitude Longitude Altitude Speed Heading
2026-04-27 08:45 12.99016 80.17669 67 ft 0 kts 145°
2026-04-27 08:57 12.99038 80.17654 67 ft 2 kts 146°
2026-04-27 08:57 12.99050 80.17646 67 ft 2 kts 145°
2026-04-27 08:57 12.99062 80.17637 67 ft 2 kts 145°
2026-04-27 08:58 12.99070 80.17632 67 ft 2 kts 143°
2026-04-27 08:58 12.99081 80.17620 67 ft 2 kts 123°
2026-04-27 08:58 12.99087 80.17606 67 ft 2 kts 106°
2026-04-27 08:58 12.99090 80.17592 67 ft 2 kts 89°
2026-04-27 08:59 12.99088 80.17577 67 ft 1 kts 72°
2026-04-27 08:59 12.99085 80.17570 67 ft 0 kts 68°
2026-04-27 09:01 12.99090 80.17581 67 ft 2 kts 69°
2026-04-27 09:01 12.99093 80.17590 67 ft 0 kts 69°
2026-04-27 09:02 12.99095 80.17596 67 ft 3 kts 69°
2026-04-27 09:02 12.99111 80.17640 67 ft 5 kts 70°
2026-04-27 09:02 12.99112 80.17643 67 ft 0 kts 70°
2026-04-27 09:02 12.99118 80.17658 67 ft 6 kts 65°
2026-04-27 09:03 12.99158 80.17692 67 ft 7 kts 18°
2026-04-27 09:03 12.99196 80.17716 67 ft 5 kts 49°
2026-04-27 09:03 12.99212 80.17742 67 ft 6 kts 63°
2026-04-27 09:03 12.99253 80.17845 67 ft 20 kts 70°
2026-04-27 09:04 12.99302 80.17979 67 ft 20 kts 69°
2026-04-27 09:04 12.99355 80.18123 67 ft 22 kts 82°
2026-04-27 09:04 12.99394 80.18278 67 ft 22 kts 54°
2026-04-27 09:04 12.99508 80.18394 67 ft 16 kts 40°
2026-04-27 09:05 12.99573 80.18388 67 ft 7 kts 279°
2026-04-27 09:05 12.99564 80.18349 67 ft 0 kts 246°
2026-04-27 09:05 12.99563 80.18346 67 ft 2 kts 246°
2026-04-27 09:05 12.99506 80.18199 67 ft 58 kts 248°
2026-04-27 09:06 12.99243 80.17509 68 ft 145 kts 250°
2026-04-27 09:06 12.98837 80.16395 69 ft 184 kts 244°
2026-04-27 09:06 12.98305 80.15092 251 ft 208 kts 241°
2026-04-27 09:06 12.97632 80.13794 792 ft 206 kts 234°
2026-04-27 09:07 12.96901 80.12580 1119 ft 185 kts 238°
2026-04-27 09:07 12.96434 80.11407 1305 ft 173 kts 245°
2026-04-27 09:07 12.95894 80.10318 1073 ft 157 kts 221°
2026-04-27 09:07 12.95046 80.09825 1193 ft 146 kts 179°
2026-04-27 09:08 12.94196 80.10239 1751 ft 142 kts 112°
2026-04-27 09:08 12.94401 80.11218 2163 ft 166 kts 53°
2026-04-27 09:08 12.95355 80.12099 2433 ft 198 kts 36°
2026-04-27 09:08 12.96526 80.12711 3005 ft 184 kts 20°
2026-04-27 09:09 12.97785 80.13048 3283 ft 191 kts
2026-04-27 09:09 12.99163 80.12897 3335 ft 208 kts 340°
2026-04-27 09:09 13.00414 80.12330 4044 ft 184 kts 331°
2026-04-27 09:09 13.01422 80.11689 4649 ft 163 kts 329°
2026-04-27 09:10 13.02483 80.11022 4643 ft 190 kts 328°
2026-04-27 09:10 13.03559 80.10316 4892 ft 181 kts 330°
2026-04-27 09:10 13.04735 80.09676 4715 ft 199 kts 335°
2026-04-27 09:10 13.06035 80.09228 4928 ft 192 kts 349°
2026-04-27 09:11 13.07460 80.09139 4867 ft 228 kts
2026-04-27 09:11 13.09227 80.09405 4822 ft 272 kts 14°
2026-04-27 09:11 13.11004 80.09938 5288 ft 263 kts 17°
2026-04-27 09:11 13.12835 80.10398 5138 ft 278 kts 12°
2026-04-27 09:12 13.14610 80.10701 6178 ft 232 kts
2026-04-27 09:12 13.16126 80.10893 6497 ft 226 kts
2026-04-27 09:12 13.17811 80.11101 5973 ft 260 kts
2026-04-27 09:12 13.19597 80.11210 6261 ft 252 kts
2026-04-27 09:13 13.21353 80.11240 6412 ft 250 kts
2026-04-27 09:13 13.23140 80.11160 5960 ft 260 kts
2026-04-27 09:13 13.24779 80.11437 6609 ft 233 kts 18°
2026-04-27 09:13 13.25376 80.11644 6616 ft 245 kts 20°
2026-04-27 09:14 13.27123 80.12257 6234 ft 285 kts 17°
2026-04-27 09:14 13.29130 80.12695 6155 ft 300 kts
2026-04-27 09:14 13.31179 80.12811 6878 ft 283 kts
2026-04-27 09:14 13.33066 80.12681 7576 ft 267 kts 355°
2026-04-27 09:15 13.34911 80.12414 7716 ft 275 kts 351°
2026-04-27 09:15 13.36867 80.11920 7543 ft 294 kts 347°
2026-04-27 09:15 13.38856 80.11350 7743 ft 296 kts 346°
2026-04-27 09:15 13.40351 80.10854 8241 ft 286 kts 342°
2026-04-27 09:16 13.41218 80.10481 8492 ft 283 kts 338°
2026-04-27 09:16 13.43008 80.09609 8596 ft 291 kts 338°
2026-04-27 09:16 13.44889 80.08741 8618 ft 293 kts 339°
2026-04-27 09:17 13.46764 80.07906 8627 ft 296 kts 340°
2026-04-27 09:17 13.48680 80.07070 8628 ft 302 kts 340°
2026-04-27 09:17 13.50661 80.06210 8612 ft 308 kts 340°
2026-04-27 09:17 13.52637 80.05352 8629 ft 308 kts 340°
2026-04-27 09:18 13.54620 80.04488 8617 ft 303 kts 340°
2026-04-27 09:18 13.56555 80.03645 8707 ft 305 kts 340°
2026-04-27 09:18 13.58562 80.02772 9139 ft 319 kts 340°
2026-04-27 09:18 13.60580 80.01892 10057 ft 314 kts 340°
2026-04-27 09:19 13.62574 80.01027 10968 ft 309 kts 340°
2026-04-27 09:19 13.64540 80.00174 11742 ft 309 kts 340°
2026-04-27 09:19 13.66576 79.99293 12235 ft 319 kts 340°
2026-04-27 09:19 13.68660 79.98392 12565 ft 334 kts 340°
2026-04-27 09:20 13.70858 79.97439 12907 ft 347 kts 339°
2026-04-27 09:20 13.73098 79.96464 13389 ft 354 kts 339°
2026-04-27 09:20 13.75390 79.95465 14083 ft 355 kts 339°
2026-04-27 09:20 13.77656 79.94479 14829 ft 353 kts 339°
2026-04-27 09:21 13.79899 79.93504 15550 ft 351 kts 339°
2026-04-27 09:21 13.82161 79.92520 16238 ft 350 kts 339°
2026-04-27 09:21 13.84383 79.91555 16864 ft 350 kts 338°
2026-04-27 09:21 13.86642 79.90572 17448 ft 351 kts 338°
2026-04-27 09:22 13.88902 79.89587 17998 ft 353 kts 338°
2026-04-27 09:22 13.91220 79.88577 18280 ft 363 kts 338°
2026-04-27 09:22 13.93581 79.87547 18470 ft 376 kts 338°
2026-04-27 09:22 13.96018 79.86484 18739 ft 385 kts 338°
2026-04-27 09:23 13.98522 79.85392 19224 ft 387 kts 338°
2026-04-27 09:23 14.01000 79.84309 19868 ft 385 kts 338°
2026-04-27 09:23 14.03443 79.83246 20574 ft 381 kts 337°
2026-04-27 09:23 14.05882 79.82183 21296 ft 376 kts 337°
2026-04-27 09:24 14.08264 79.81147 21953 ft 372 kts 337°
2026-04-27 09:24 14.10654 79.80106 22568 ft 369 kts 337°
2026-04-27 09:24 14.13021 79.79073 23120 ft 368 kts 336°
2026-04-27 09:24 14.15386 79.78040 23646 ft 367 kts 336°
2026-04-27 09:25 14.17722 79.77017 24124 ft 366 kts 336°
2026-04-27 09:25 14.20089 79.75981 24556 ft 367 kts 336°
2026-04-27 09:25 14.22467 79.74941 24691 ft 376 kts 336°
2026-04-27 09:25 14.24928 79.73862 24691 ft 388 kts 336°
2026-04-27 09:26 14.27462 79.72753 24697 ft 400 kts 336°
2026-04-27 09:26 14.30034 79.71628 24685 ft 406 kts 336°
2026-04-27 09:26 14.32659 79.70480 24669 ft 410 kts 336°
2026-04-27 09:26 14.35288 79.69329 24672 ft 409 kts 336°
2026-04-27 09:27 14.37937 79.68172 24670 ft 410 kts 336°
2026-04-27 09:27 14.40547 79.67030 24673 ft 410 kts 336°
2026-04-27 09:27 14.43200 79.65867 24673 ft 410 kts 336°
2026-04-27 09:27 14.45815 79.64722 24672 ft 411 kts 336°
2026-04-27 09:28 14.48478 79.63554 24674 ft 411 kts 336°
2026-04-27 09:28 14.51109 79.62402 24673 ft 411 kts 336°
2026-04-27 09:28 14.53758 79.61243 24675 ft 410 kts 336°
2026-04-27 09:28 14.56375 79.60095 24673 ft 410 kts 336°
2026-04-27 09:29 14.58989 79.58947 24674 ft 410 kts 336°
2026-04-27 09:29 14.61640 79.57783 24677 ft 410 kts 336°
2026-04-27 09:29 14.64286 79.56626 24676 ft 410 kts 335°
2026-04-27 09:29 14.66907 79.55478 24674 ft 410 kts 335°
2026-04-27 09:30 14.69542 79.54321 24672 ft 410 kts 335°
2026-04-27 09:30 14.72146 79.53176 24672 ft 410 kts 335°
2026-04-27 09:30 14.74798 79.52010 24673 ft 410 kts 335°
2026-04-27 09:30 14.77435 79.50851 24674 ft 412 kts 335°
2026-04-27 09:31 14.80058 79.49699 24672 ft 411 kts 335°
2026-04-27 09:31 14.82715 79.48530 24676 ft 411 kts 335°
2026-04-27 09:31 14.85349 79.47372 24677 ft 411 kts 335°
2026-04-27 09:31 14.87967 79.46223 24679 ft 410 kts 335°
2026-04-27 09:32 14.90601 79.45066 24678 ft 409 kts 335°
2026-04-27 09:32 14.93222 79.43911 24679 ft 410 kts 335°
2026-04-27 09:32 14.95869 79.42744 24682 ft 410 kts 335°
2026-04-27 09:32 14.98486 79.41583 24681 ft 411 kts 335°
2026-04-27 09:33 15.01130 79.40395 24682 ft 411 kts 335°
2026-04-27 09:33 15.03755 79.39214 24684 ft 411 kts 335°
2026-04-27 09:33 15.06380 79.38036 24686 ft 410 kts 335°
2026-04-27 09:33 15.08979 79.36874 24689 ft 411 kts 335°
2026-04-27 09:34 15.11636 79.35685 24691 ft 410 kts 335°
2026-04-27 09:34 15.14283 79.34500 24695 ft 410 kts 334°
2026-04-27 09:34 15.16889 79.33330 24704 ft 410 kts 334°
2026-04-27 09:34 15.19532 79.32143 24706 ft 410 kts 334°
2026-04-27 09:35 15.22132 79.30977 24707 ft 409 kts 334°
2026-04-27 09:35 15.24772 79.29793 24708 ft 409 kts 334°
2026-04-27 09:35 15.27398 79.28617 24710 ft 410 kts 334°
2026-04-27 09:35 15.30020 79.27442 24712 ft 409 kts 334°
2026-04-27 09:36 15.32628 79.26272 24709 ft 408 kts 334°
2026-04-27 09:36 15.35228 79.25101 24712 ft 409 kts 334°
2026-04-27 09:36 15.37855 79.23919 24712 ft 409 kts 334°
2026-04-27 09:36 15.40486 79.22738 24711 ft 410 kts 334°
2026-04-27 09:37 15.43126 79.21551 24711 ft 409 kts 334°
2026-04-27 09:37 15.45736 79.20378 24712 ft 410 kts 334°
2026-04-27 09:37 15.48358 79.19202 24711 ft 410 kts 334°
2026-04-27 09:37 15.50984 79.18027 24708 ft 410 kts 334°
2026-04-27 09:38 15.53610 79.16856 24711 ft 409 kts 334°
2026-04-27 09:38 15.56233 79.15688 24716 ft 409 kts 334°
2026-04-27 09:38 15.58851 79.14521 24723 ft 409 kts 334°
2026-04-27 09:38 15.61454 79.13358 24697 ft 405 kts 334°
2026-04-27 09:39 15.64022 79.12212 24375 ft 396 kts 334°
2026-04-27 09:39 15.66565 79.11071 23735 ft 396 kts 334°
2026-04-27 09:39 15.69071 79.09947 23215 ft 391 kts 334°
2026-04-27 09:39 15.71552 79.08838 22972 ft 393 kts 334°
2026-04-27 09:40 15.74124 79.07688 22725 ft 403 kts 334°
2026-04-27 09:40 15.76666 79.06554 22450 ft 394 kts 334°
2026-04-27 09:40 15.79198 79.05423 21939 ft 390 kts 334°
2026-04-27 09:40 15.81661 79.04321 20516 ft 395 kts 334°
2026-04-27 09:41 15.84136 79.03208 19621 ft 381 kts 335°
2026-04-27 09:41 15.86522 79.02138 19246 ft 359 kts 335°
2026-04-27 09:41 15.88773 79.01131 19059 ft 349 kts 335°
2026-04-27 09:41 15.91011 79.00133 19019 ft 357 kts 335°
2026-04-27 09:42 15.93338 78.99090 18651 ft 359 kts 335°
2026-04-27 09:42 15.95606 78.98072 18283 ft 353 kts 335°
2026-04-27 09:42 15.97861 78.97061 17914 ft 348 kts 335°
2026-04-27 09:42 16.00068 78.96071 17554 ft 345 kts 335°
2026-04-27 09:43 16.02270 78.95082 17183 ft 343 kts 335°
2026-04-27 09:43 16.04456 78.94100 16831 ft 342 kts 335°
2026-04-27 09:43 16.06663 78.93111 16479 ft 340 kts 336°
2026-04-27 09:43 16.08830 78.92139 16132 ft 338 kts 336°
2026-04-27 09:44 16.11003 78.91161 15782 ft 337 kts 336°
2026-04-27 09:44 16.13155 78.90196 15434 ft 334 kts 336°
2026-04-27 09:44 16.15281 78.89243 15088 ft 331 kts 336°
2026-04-27 09:44 16.17403 78.88288 14737 ft 328 kts 336°
2026-04-27 09:45 16.19489 78.87347 14390 ft 325 kts 336°
2026-04-27 09:45 16.21577 78.86407 14044 ft 323 kts 337°
2026-04-27 09:45 16.23671 78.85468 13693 ft 322 kts 337°
2026-04-27 09:45 16.25714 78.84553 13348 ft 320 kts 337°
2026-04-27 09:46 16.27760 78.83633 12997 ft 318 kts 337°
2026-04-27 09:46 16.29794 78.82719 12800 ft 312 kts 337°
2026-04-27 09:46 16.31808 78.81813 12816 ft 315 kts 337°
2026-04-27 09:46 16.33835 78.80904 12822 ft 317 kts 338°
2026-04-27 09:47 16.35880 78.79983 12789 ft 312 kts 338°
2026-04-27 09:47 16.37876 78.79085 12580 ft 315 kts 338°
2026-04-27 09:47 16.39901 78.78175 12336 ft 313 kts 337°
2026-04-27 09:47 16.41888 78.77283 12082 ft 305 kts 337°
2026-04-27 09:48 16.43829 78.76410 11846 ft 296 kts 337°
2026-04-27 09:48 16.45710 78.75562 11612 ft 290 kts 337°
2026-04-27 09:48 16.47568 78.74724 11385 ft 289 kts 337°
2026-04-27 09:48 16.49420 78.73888 11161 ft 289 kts 337°
2026-04-27 09:49 16.51255 78.73061 10946 ft 289 kts 337°
2026-04-27 09:49 16.53118 78.72218 10733 ft 287 kts 338°
2026-04-27 09:49 16.54944 78.71394 10522 ft 287 kts 338°
2026-04-27 09:49 16.56800 78.70560 10311 ft 287 kts 338°
2026-04-27 09:50 16.58627 78.69736 10102 ft 285 kts 337°
2026-04-27 09:50 16.60473 78.68925 9887 ft 284 kts 342°
2026-04-27 09:50 16.62392 78.68482 9688 ft 283 kts 353°
2026-04-27 09:50 16.64372 78.68245 9482 ft 283 kts 355°
2026-04-27 09:51 16.66319 78.68057 9273 ft 282 kts 355°
2026-04-27 09:51 16.68309 78.67879 9061 ft 282 kts 356°
2026-04-27 09:51 16.70266 78.67705 8852 ft 281 kts 356°
2026-04-27 09:51 16.72216 78.67533 8645 ft 280 kts 356°
2026-04-27 09:52 16.74183 78.67364 8437 ft 281 kts 356°
2026-04-27 09:52 16.76134 78.67198 8234 ft 280 kts 356°
2026-04-27 09:52 16.78083 78.67038 8033 ft 279 kts 356°
2026-04-27 09:52 16.80044 78.66871 7829 ft 279 kts 356°
2026-04-27 09:53 16.81978 78.66706 7628 ft 278 kts 356°
2026-04-27 09:53 16.83944 78.66537 7424 ft 277 kts 356°
2026-04-27 09:53 16.85865 78.66374 7227 ft 277 kts 356°
2026-04-27 09:53 16.87800 78.66215 7027 ft 277 kts 356°
2026-04-27 09:54 16.89750 78.66050 6826 ft 277 kts 356°
2026-04-27 09:54 16.91663 78.65886 6629 ft 276 kts 356°
2026-04-27 09:54 16.93603 78.65723 6427 ft 275 kts 356°
2026-04-27 09:54 16.95512 78.65563 6226 ft 275 kts 355°
2026-04-27 09:55 16.97427 78.65402 6025 ft 275 kts 355°
2026-04-27 09:55 16.99374 78.65236 5821 ft 273 kts 355°
2026-04-27 09:55 17.03211 78.64906 5404 ft 273 kts 355°
2026-04-27 09:56 17.05120 78.64743 5191 ft 271 kts 356°
2026-04-27 09:56 17.07022 78.64579 4983 ft 272 kts 356°
2026-04-27 09:56 17.08914 78.64418 4775 ft 271 kts 356°
2026-04-27 09:56 17.10778 78.64261 4557 ft 264 kts 356°
2026-04-27 09:57 17.12589 78.64109 4394 ft 254 kts 356°
2026-04-27 09:57 17.14317 78.63963 4371 ft 238 kts 356°
2026-04-27 09:57 17.15931 78.63826 4360 ft 225 kts 355°
2026-04-27 09:57 17.17473 78.63696 4255 ft 218 kts 356°
2026-04-27 09:58 17.19006 78.63567 4032 ft 221 kts 355°
2026-04-27 09:58 17.20540 78.63438 3851 ft 218 kts 355°
2026-04-27 09:58 17.20928 78.63397 3808 ft 215 kts 350°
2026-04-27 10:00 17.21320 78.63302 3790 ft 210 kts 339°
2026-04-27 10:01 17.22349 78.62373 3691 ft 194 kts 293°
2026-04-27 10:01 17.22604 78.61015 3620 ft 192 kts 275°
2026-04-27 10:01 17.22765 78.59610 3463 ft 193 kts 279°
2026-04-27 10:01 17.23003 78.58240 3407 ft 188 kts 279°
2026-04-27 10:02 17.23083 78.56931 3457 ft 174 kts 269°
2026-04-27 10:02 17.23064 78.55675 3463 ft 171 kts 269°
2026-04-27 10:02 17.23042 78.54427 3472 ft 172 kts 268°
2026-04-27 10:02 17.23020 78.53168 3426 ft 174 kts 268°
2026-04-27 10:03 17.23005 78.51933 3200 ft 171 kts 269°
2026-04-27 10:03 17.22991 78.50711 2986 ft 166 kts 269°
2026-04-27 10:03 17.22974 78.49526 2784 ft 162 kts 268°
2026-04-27 10:03 17.22957 78.48356 2603 ft 159 kts 268°
2026-04-27 10:04 17.22928 78.47192 2462 ft 159 kts 268°
2026-04-27 10:04 17.22916 78.46046 2240 ft 158 kts 270°
2026-04-27 10:04 17.22903 78.44895 2062 ft 152 kts 269°
2026-04-27 10:04 17.22891 78.43941 2042 ft 81 kts 269°
2026-04-27 10:05 17.22888 78.43769 2037 ft 0 kts 270°
2026-04-27 10:05 17.22888 78.43699 2034 ft 29 kts 270°
2026-04-27 10:05 17.22885 78.43449 2024 ft 25 kts 272°
2026-04-27 10:06 17.22910 78.43406 2023 ft 0 kts 38°
2026-04-27 10:06 17.22916 78.43411 2023 ft 3 kts 44°
2026-04-27 10:06 17.22932 78.43433 2024 ft 2 kts 54°
2026-04-27 10:06 17.22946 78.43453 2025 ft 7 kts 57°
2026-04-27 10:07 17.22978 78.43507 2028 ft 10 kts 58°
2026-04-27 10:07 17.23023 78.43583 2031 ft 14 kts 59°
2026-04-27 10:07 17.23088 78.43677 2034 ft 18 kts 36°
2026-04-27 10:07 17.23235 78.43695 2030 ft 25 kts 358°
2026-04-27 10:08 17.23337 78.43625 2020 ft 16 kts 277°
2026-04-27 10:08 17.23364 78.43574 2017 ft 3 kts 348°
2026-04-27 10:08 17.23398 78.43572 2016 ft 1 kts
2026-04-27 10:08 17.23416 78.43572 2016 ft 0 kts 359°